2018-096B (43720 NORAD) Tracking and Keplerian Element Data

This shows tracking and keplerian element data for the satellite.

Feedback or suggestion? Click here.




ElementValue
Catalog43720
Name2018-096B
Epoch Orbit458
Epoch Day363.20035502
Epoch Year2018
RAAN68.2027
Inclination97.4813
Eccentricity0.0016706
Argument of Perigee210.5994
Mean Anonmoly149.4271
Mean Motion15.2574004
Decay Rate2.217E-05
L11 43720U 18096B 18363.20035502 .00002217 00000-0 89529-4 0 9997
L22 43720 97.4813 68.2027 0016706 210.5994 149.4271 15.25740040 4588

Live tracking and technical data element details for 2018-096B (NORAD 43720). 2018-096B can be tracked NOW for your location showing map with azimuth and elevation plus other details from your city location.

Track the satellite on the map from your city or location and see movement details for azimuth, elevation, latitude, longitude, range, height, and movement on the map or in text.







IsCatalogInMostPopularTable: catalog: 43720, numindb: 88
Update: records affected: 1



GetName: 43720 2018-096B

Hit Count: updated at: Mon, 22 Jul 2019 03:54:36 GMT